DELTA 1 DEB (YO)

Satellite information

Favourite Embed

Satellite Type and Status

DEBRISIN ORBIT

Key statistics

Satellite DELTA 1 DEB (YO) at a glance.

Uptime

23029

Days in orbit

Revolutions

≈ 14.6

Per day

Orbit

LEO

Low Earth Orbit

Inclination

58.2

Latest

Satellite identification and parameters

Extended collection of information and parameters for DELTA 1 DEB (YO).

Object identification

Identified? True

Debris? True

Object name: DELTA 1 DEB (YO)

International designator: 1962-025C

Object number (NORAD): 312

Object ID (CCSDS): 312

Country: UNITED STATES OF AMERICA (US)

Current information (Y/N): Y

RCS size: SMALL

Orbital parameters

Period: 98.584 minutes

Inclination: 58.245 deg

SMA: 7069.104 km

Apoapsis: 826.085 km

Periapsis: 555.854 km

RAAN: 214.8245 deg

Eccentricy: 0.0191135

Argument of periapsis: 200.3115 deg

Mean anomaly: 159.0241 deg

Mean motion: 14.60683661 rev/day

Mean motion (dot): 0.00000621 rev/day2

B* drag term: 0.00013186 1/REarth

Two-line elements (TLE)

Creation date: July 5, 2025, 5:45 p.m.

Reference frame: TEME

Reference center: EARTH

Epoch: July 5, 2025, 1:23 p.m. UTC

TLE line 0: 0 DELTA 1 DEB (YO)

TLE line 1: 1 00312U 62025C 25186.55814040 .00000621 00000-0 13186-3 0 9991

TLE line 2: 2 00312 58.2450 214.8245 0191135 200.3115 159.0241 14.60683661308251

Live tracking on map

Real-time ground track for satellite DELTA 1 DEB (YO).

In-orbit conjunctions

A list of the most updated potential collisions computed for object DELTA 1 DEB (YO).

Target Orbit TCA Probability of collision Miss distance Type
COSMOS 676 LEO 2025-03-15 18:13:48 0.0001036916 947.0 (m) PAYLOAD
SL-14 R/B LEO 2024-10-13 13:50:00 0.0001438539 141.0 (m) ROCKET BODY

Associated space launch

NASA's TIROS (Television & Infra-Red Observation Satellite) program was the first experimental weathersatellite program.

DELTA 1 DEB (YO) was lifted into orbit during the mission ‘Thor Delta | Tiros 5’, on board a Thor Delta space rocket.

The launch took place on June 19, 1962, 12:19 p.m. from Space Launch Complex 17A.

For more information about the launch, click the button.

Launch to space Thor Delta | Tiros 5
Thor Delta | Tiros 5

Agency: N/A

Status: Launch Successful

Launch date: June 19, 1962, 12:19 p.m. UTC

Rocket: Thor Delta

Launch pad: Space Launch Complex 17A

Location: Cape Canaveral SFS, FL, USA

...

Latest news about this satellite

There are no fresh news available about this satellite. Check back as we update our databases every day.


Newsletter sign-up

Weekly statistics, charts and insights to help you stay on top of the space industry.